N0MQJ Weather Reports


time (UTC)temp
C
wind
direction
speed
KPH
gust
KPH
rain 1hr
cm
rain 24hr
cm
rain mn
cm
humidity
%
barometer
mb
20260508023027 7 14 0.0 0.0 0.00 0.00 0.00 48 1012.0
20260508021531 7 9 0.0 6.4 0.00 0.00 0.00 44 1012.0
20260508020057 8 22 0.0 12.9 0.00 0.00 0.00 43 1012.0
20260508014556 8 298 0.0 4.8 0.00 0.00 0.00 41 1011.8
20260508013051 8 291 0.0 6.4 0.00 0.00 0.00 38 1011.6
20260508011519 9 22 0.0 9.7 0.00 0.00 0.00 37 1011.7
20260508010028 9 26 3.2 11.3 0.00 0.00 0.00 37 1011.7
20260508004526 9 24 0.0 6.4 0.00 0.00 0.00 36 1012.0
20260508003031 10 25 1.6 17.7 0.00 0.00 0.00 33 1012.1
20260508001558 10 17 6.4 19.3 0.00 0.00 0.00 33 1012.2
20260508000052 10 348 6.4 19.3 0.00 0.00 0.00 32 1012.2
20260507234537 11 346 1.6 25.7 0.00 0.00 0.00 34 1012.3
20260507233145 11 19 9.7 22.5 0.00 0.00 0.00 34 1012.4
20260507231546 11 22 8.0 17.7 0.00 0.00 0.00 34 1012.6
20260507230013 10 34 1.6 12.9 0.00 0.03 0.00 38 1012.9
20260507224540 10 13 1.6 14.5 0.00 0.03 0.00 39 1013.0
20260507223014 10 24 0.0 16.1 0.00 0.03 0.00 37 1013.0
20260507221535 10 360 3.2 22.5 0.00 0.03 0.00 36 1013.3
20260507220043 10 88 6.4 19.3 0.00 0.03 0.00 36 1013.5
20260507214641 10 15 3.2 22.5 0.00 0.05 0.00 34 1013.7
20260507213014 10 15 3.2 27.4 0.00 0.05 0.00 34 1014.0
20260507211559 10 355 3.2 22.5 0.00 0.05 0.00 36 1014.3
20260507210023 10 49 6.4 20.9 0.00 0.05 0.00 34 1014.4
20260507204527 10 40 3.2 17.7 0.00 0.25 0.00 43 1014.6
20260507203040 10 5 3.2 14.5 0.00 0.25 0.00 38 1014.9
20260507201525 9 70 6.4 20.9 0.00 0.25 0.00 40 1015.0
20260507200150 9 360 1.6 17.7 0.00 0.25 0.00 41 1015.3
20260507194520 9 5 0.0 14.5 0.00 0.53 0.00 39 1015.6
20260507193129 10 14 0.0 16.1 0.00 0.53 0.00 36 1015.8
20260507191524 11 9 4.8 24.1 0.00 0.53 0.00 35 1015.8
20260507190005 10 5 1.6 11.3 0.00 0.56 0.00 44 1016.1
20260507184527 10 253 0.0 16.1 0.00 0.56 0.00 41 1016.4
20260507183025 9 265 0.0 14.5 0.00 0.56 0.00 43 1017.1
20260507181526 8 34 3.2 12.9 0.00 0.56 0.00 40 1017.4
20260507180111 9 355 0.0 9.7 0.00 0.56 0.00 40 1017.6
20260507174555 9 32 1.6 19.3 0.00 0.56 0.00 40 1017.7
20260507173139 9 41 3.2 11.3 0.00 0.56 0.00 42 1018.0
20260507171556 8 14 0.0 22.5 0.00 0.56 0.00 44 1018.3
20260507170012 8 32 0.0 16.1 0.00 0.56 0.00 43 1018.6
20260507164511 7 46 4.8 16.1 0.00 0.56 0.00 43 1019.0
20260507163058 7 42 1.6 16.1 0.00 0.56 0.00 44 1019.5
20260507161554 7 15 8.0 20.9 0.00 0.56 0.00 43 1019.9
20260507160056 7 60 3.2 16.1 0.00 0.56 0.00 44 1020.3
20260507154552 6 19 4.8 14.5 0.00 0.56 0.00 42 1020.4
20260507153101 5 336 1.6 6.4 0.00 0.56 0.00 47 1020.6
20260507151518 4 315 0.0 0.0 0.00 0.56 0.00 47 1020.9
20260507150016 3 316 0.0 0.0 0.00 0.56 0.00 49 1021.3
20260507144543 3 316 0.0 6.4 0.00 0.56 0.00 48 1021.1
20260507141548 2 236 0.0 9.7 0.00 0.56 0.00 50 1021.5
20260507140050 1 360 0.0 0.0 0.00 0.56 0.00 49 1021.7
20260507134555 1 360 0.0 4.8 0.00 0.56 0.00 52 1021.7
20260507133032 0 360 0.0 0.0 0.00 0.56 0.00 55 1021.5
20260507131554 0 360 0.0 0.0 0.00 0.56 0.00 55 1021.6
20260507130045 0 351 0.0 6.4 0.00 0.56 0.00 54 1021.6
20260507124645 -1 350 0.0 0.0 0.00 0.56 0.00 56 1021.7
20260507123042 -2 350 0.0 6.4 0.00 0.56 0.00 56 1021.8
20260507121628 -2 346 0.0 0.0 0.00 0.56 0.00 56 1021.9
20260507120045 -2 346 0.0 3.2 0.00 0.56 0.00 56 1021.7
20260507114616 -2 345 0.0 0.0 0.00 0.56 0.00 55 1021.7
20260507113045 -2 345 0.0 0.0 0.00 0.56 0.00 55 1021.6
20260507111550 -2 345 0.0 0.0 0.00 0.56 0.00 57 1021.7
20260507110054 -2 344 0.0 4.8 0.00 0.56 0.00 57 1021.7
20260507104534 -2 344 0.0 0.0 0.00 0.56 0.00 56 1021.6
20260507103040 -2 333 0.0 3.2 0.00 0.56 0.00 55 1021.6
20260507101623 -2 21 0.0 0.0 0.00 0.56 0.00 56 1021.6
20260507100027 -3 22 0.0 6.4 0.00 0.56 0.00 59 1021.3
20260507094644 -3 22 0.0 0.0 0.00 0.56 0.00 60 1021.5
20260507093025 -4 22 0.0 0.0 0.00 0.56 0.00 56 1021.8
20260507091507 -4 23 0.0 0.0 0.00 0.56 0.00 55 1021.8
20260507090026 -4 23 0.0 0.0 0.00 0.56 0.00 52 1021.8
20260507083013 -3 23 0.0 0.0 0.00 0.56 0.00 56 1022.1
20260507081546 -3 23 0.0 0.0 0.00 0.56 0.00 55 1021.9
20260507080036 -3 23 0.0 0.0 0.00 0.56 0.00 55 1021.8
20260507074553 -3 23 0.0 0.0 0.00 0.56 0.00 56 1021.8
20260507073034 -3 23 0.0 0.0 0.00 0.56 0.00 56 1021.7
20260507071539 -3 23 0.0 0.0 0.00 0.56 0.00 60 1021.6
20260507070020 -3 23 0.0 0.0 0.00 0.56 0.00 60 1021.2
20260507064601 -3 23 0.0 0.0 0.00 0.56 0.00 60 1021.2
20260507063056 -3 23 0.0 8.0 0.00 0.56 0.00 63 1021.1
20260507061606 -2 17 0.0 4.8 0.00 0.56 0.00 63 1021.0
20260507060056 -3 17 0.0 0.0 0.00 0.56 0.00 65 1020.9
20260507054557 -3 17 0.0 0.0 0.00 0.56 0.56 66 1020.7
20260507053025 -3 17 0.0 0.0 0.00 0.56 0.56 69 1020.7
20260507051529 -2 17 0.0 0.0 0.00 0.56 0.56 69 1020.5
20260507050013 -2 16 0.0 0.0 0.00 0.56 0.56 69 1020.3
20260507044508 -2 17 0.0 0.0 0.00 0.56 0.56 69 1020.1
20260507043112 -2 16 0.0 3.2 0.00 0.56 0.56 69 1020.0
20260507041554 -2 17 0.0 4.8 0.00 0.56 0.56 68 1019.8
20260507040050 -1 17 0.0 6.4 0.00 0.56 0.56 67 1019.6
20260507034602 -1 23 1.6 12.9 0.00 0.56 0.56 66 1019.3
20260507033044 -1 19 1.6 12.9 0.00 0.56 0.56 67 1019.1
20260507031516 -2 30 1.6 8.0 0.00 0.56 0.56 70 1018.7
20260507030050 -2 18 0.0 0.0 0.00 0.56 0.56 72 1018.6
20260507024543 -1 19 0.0 0.0 0.00 0.56 0.56 73 1018.3